Flag for Colombia Weather past 2 weeks in Cúcuta, Colombia

Now
79 °F

Passing clouds.


Feels Like: 80 °F
Forecast: 68 / 97 °F
Wind: N/A

Location: San Antonio Del Tachira Airport

Current Time: Jul 28, 2014 at 8:04:12 AM

Latest Report: Jul 28, 2014 at 7:00 AM


Visibility: N/A

Pressure: 30.01 "Hg

Humidity: 58%

Dew point: 63 °F

Location of CúcutaLocation

Historic Weather in Cúcuta — Graph

°F

Cúcuta temperature yesterday

Maximum temperature yesterday: 82 °F (at 9:00 AM)
Minimum temperature yesterday: 73 °F (at 7:00 AM)
Average temperature yesterday: 80 °F

Past Weeks' High & Low Weather Summary

 TemperatureHumidityPressure
High95 °F (Jul 25, 1:00 PM)100% (Jul 26, 3:00 PM)30.12 "Hg (Jul 26, 3:00 PM)
Low70 °F (Jul 17, 6:00 AM)34% (Jul 25, 4:00 PM)29.83 "Hg (Jul 25, 4:00 PM)
Average83 °F56%29.95 "Hg
* Reported Jul 13 6:00 AM — Jul 28 6:00 AM, Cúcuta, Weather by CustomWeather, © 2014

Note: Actual official high and low records may vary slightly from our data, if they occured in-between our weather recording intervals... More about our weather records

Advertising

Cúcuta weather history for previous 24 hours

 ConditionsComfort  
Time TempWeatherWind HumidityBarometerVisibility
6:00 AM
Jul 28
77 °FPassing clouds.N/A61%30.01 "HgN/A
4:00 AM75 °FPassing clouds.N/A69%29.95 "HgN/A
1:00 AM81 °FPassing clouds.N/A54%30.01 "HgN/A
10:00 PM
Jul 27
82 °FPassing clouds.N/A51%30.04 "HgN/A
9:00 PM82 °FPassing clouds.N/A48%30.01 "HgN/A
7:00 PM82 °FPassing clouds.N/A48%29.98 "HgN/A
5:00 PM81 °FPartly sunny.N/A58%29.92 "HgN/A
4:00 PM81 °FPartly sunny.N/A62%29.92 "HgN/A
3:00 PM81 °FPartly sunny.N/A54%29.95 "HgN/A
2:00 PM81 °FPartly sunny.N/A54%29.95 "HgN/A
1:00 PM82 °FPartly sunny.N/A51%29.98 "HgN/A
12:00 PM82 °FPartly sunny.N/A58%30.04 "HgN/A
11:00 AM82 °FPartly sunny.N/A58%30.04 "HgN/A
10:00 AM82 °FPartly sunny.N/A58%30.04 "HgN/A
9:00 AM82 °FPartly sunny.N/A58%30.04 "HgN/A
8:00 AM75 °FScattered clouds.N/A83%30.01 "HgN/A
Weather by CustomWeather, © 2014

See weather overviewHow to use our weather pages